Location: Caucaguita
(10.3578°N, 66.8025°W)
Time: 02:16:32
(UTC+00:00)

Cosmos 1862 - Pass Details

Date: 18 November 2025
Orbit: 473 x 485 km, 82.5° (Epoch: 09 December)

Event Time Altitude Azimuth Distance (km) Brightness Sun altitude
Rises 22:43:36 0° 5° (N) 2,528 6.5 -10.7°
Reaches altitude 10° 22:45:46 10° 12° (NNE) 1,652 5.5 -11.2°
Maximum altitude 22:49:13 43° 85° (E) 681 3.3 -12.0°
Drops below altitude 10° 22:52:41 10° 158° (SSE) 1,661 5.7 -12.8°
Sets 22:54:51 0° 165° (SSE) 2,543 6.8 -13.3°
